Location: Newark
(42.7133°N, 87.7910°W)
Time: 02:27:58
(UTC+00:00)

Vanguard 1 Rocket - Pass Details

Date: 21 September 2019
Orbit: 650 x 4226 km, 34.3° (Epoch: 13 October)

Event Time Altitude Azimuth Distance (km) Brightness Sun altitude
Rises 00:26:18 0° 246° (WSW) 8,245 13.4 -7.0°
Reaches altitude 10° 00:32:37 10° 244° (WSW) 6,907 12.8 -8.2°
Maximum altitude 00:52:37 57° 173° (S) 2,810 9.7 -11.8°
Enters shadow 01:01:45 16° 101° (E) 3,532 9.7 -13.4°
